Regional Weather Roundup
Issued by NWS

Home | Current Version | Previous Version | Text Only | Print | Product List | Glossary Off
Versions: 1 2 3 4 5 6 7 8 9 10 11 12 13 14 15 16 17 18 19 20 21 22 23 24 25 26 27 28 29 30 31 32 33 34 35 36 37 38 39 40 41 42 43 44 45 46 47 48 49 50

657
ASUS44 KLIX 202110
RWRLA
LOUISIANA WEATHER ROUNDUP
NATIONAL WEATHER SERVICE NEW ORLEANS LA
300 PM CST SAT DEC 20 2014

NOTE: "FAIR" INDICATES FEW OR NO CLOUDS BELOW 12,000 FEET WITH NO
      SIGNIFICANT WEATHER AND/OR OBSTRUCTIONS TO VISIBILITY.
      SKY/WX - SKY CONDITION AND SIGNIFICANT WEATHER.
      TMP - AIR TEMPERATURE.    DP   - DEWPOINT TEMPERATURE.
      RH  - RELATIVE HUMIDITY.  PRES - PRESSURE.
      HX  - HEAT INDEX.         WCI  - WIND CHILL INDEX.

*  THESE STATIONS ARE NOT NWS OR FAA STATIONS AND ARE NOT UNDER
   NWS QUALITY CONTROL.

LAZ040-048-061>063-065-066-069-202200-
SOUTHEAST LOUISIANA

CITY           SKY/WX    TMP DP  RH WIND       PRES   REMARKS
N.O. AUDUBON     N/A     55  50  82 MISG        N/A
N.O. INTL ARPT CLOUDY    53  48  83 N13       30.10F
N.O. LAKEFRONT CLOUDY    55  48  77 N16       30.10F
N.O. DOWNTOWN* CLOUDY    54  46  76 NE8       30.10S
SLIDELL        CLOUDY    53  47  79 N9        30.11R
BATON ROUGE    CLOUDY    51  46  83 NE10      30.13S
BOOTHVILLE     CLOUDY    56  52  86 NE12G17   30.08R
BELLE CHASSE   CLOUDY    55  49  80 N6        30.09S
BOGALUSA*        N/A     53  46  78 NE6       30.14S
GALLIANO*      CLOUDY    56  51  84 MISG      30.08S
NEW ROADS*     CLOUDY    53  46  79 NE7       30.14R
GONZALES*      CLOUDY    51  50  97 N5        30.12S
HAMMOND*       NOT AVBL
HOUMA*         CLOUDY    52  50  93 N9        30.09S
PORT FOURCHON* CLOUDY    55  52  88 NE18      30.10R

$$

LAZ041-044-053-054-202200-
SOUTHWEST LOUISIANA

CITY           SKY/WX    TMP DP  RH WIND       PRES   REMARKS
LAKE CHARLES   SUNNY     60  48  64 NE12      30.12R
LAFAYETTE      CLOUDY    51  47  86 NE13      30.13S
PATTERSON      CLOUDY    52  48  87 N10       30.12S
SALT POINT       N/A     55  50  83 VRB3      30.10R
NEW IBERIA     CLOUDY    52  48  86 N13       30.13R
CHENAULT AIRPK MOSUNNY   59  48  67 NE9       30.12S

$$

LAZ027-028-202200-
CENTRAL LOUISIANA

CITY           SKY/WX    TMP DP  RH WIND       PRES   REMARKS
FORT POLK      SUNNY     54  44  69 NE9       30.14F
ALEXANDRIA INT SUNNY     56  44  64 N8        30.14F
ALEXANDRIA     MOSUNNY   57  43  59 VRB6      30.15S

$$

LAZ001-002-202200-
NORTHWEST LOUISIANA

CITY           SKY/WX    TMP DP  RH WIND       PRES   REMARKS
SHREVEPORT     CLOUDY    47  43  86 CALM      30.20S
BARKSDALE AFB  NOT AVBL
DTN SHREVEPORT CLOUDY    45  41  86 N3        30.21S

$$

LAZ014-016-202200-
NORTHEAST LOUISIANA

CITY           SKY/WX    TMP DP  RH WIND       PRES   REMARKS
MONROE         SUNNY     56  42  59 E12       30.18F
TALLULAH       SUNNY     58  40  51 VRB7      30.16F

$$




USA.gov is the U.S. government's official web portal to all federal, state and local government web resources and services.